Torna al catalogo

USA 318

AttivoMilitareVLEO
NORAD 48848·PAYLOAD·🇺🇸 United States

Lanciato Jun 15, 2021 da Wallops Flight Facility

Loading…

Prossimi Passaggi (prossime 24 ore)

TLE

ObsoletoSource: Mike McCants

Epoca: Aug 6, 2026, 00:18 UTC

1 48848U 21052C   26218.01265444 0.00004600  00000-0  27580-3 0    05
2 48848  54.9935 230.2013 0009274  32.2516 327.7483 15.10479386    09

Traccia USA 318 in tempo reale con AllMySat

Download on the App Store